SCP
0 0 0 0 0 0 0 0 0 1 1 1 1 1 1 1 1 2 1 1 1 1 1 1 1 1 1 1 1 0 0 1 0 1 1 0 0 0 0 0 0 0 0
0 0 0 0 0 0 0 0 0 1 1 2 1 1 0 0 0 1 2 1 1 1 1 1 1 1 1 1 1 1 0 0 0 0 0 0 0 0 0 0 0 0 0
0 0 0 0 0 0 0 0 0 1 1 1 1 1 1 1 1 1 1 1 1 1 1 1 1 1 1 1 1 0 0 0 0 0 0 0 0 0 0 0 0 0 0
0 0 0 0 0 0 0 0 0 0 1 1 2 2 2 2 2 2 1 2 1 2 2 2 1 1 1 1 1 1 0 0 0 0 0 0 0 0 0 0 0 0 0
0 0 0 0 0 0 1 1 0 0 0 2 2 3 2 2 2 2 5 3 3 2 2 2 2 1 1 1 0 0 0 0 0 0 0 0 0 0 0 0 0 0 0
0 0 0 0 0 0 0 0 1 1 1 1 2 2 3 2 2 3 3 3 3 3 3 2 2 1 1 0 1 1 0 0 0 0 0 0 0 0 0 0 0 0 0
0 0 0 0 0 0 0 0 1 1 1 1 1 1 2 2 2 5 3 3 2 2 3 2 2 1 1 0 1 1 0 0 0 0 0 0 0 0 0 0 0 0 0
0 0 0 0 0 0 0 0 0 1 1 1 1 2 2 3 3 3 3 2 2 1 4 2 2 1 1 1 1 1 0 1 0 0 -0 0 0 0 0 0 0 0 0
0 0 0 0 0 0 0 0 0 0 0 1 1 1 3 3 3 6 3 3 4 1 2 2 2 1 1 1 1 1 1 0 0 0 0 0 0 0 0 0 0 0 0
0 0 0 0 0 0 0 0 0 0 0 0 0 0 1 3 3 4 4 3 3 2 2 2 2 1 1 1 2 1 1 1 1 0 0 0 0 0 0 -0 -0 0 0
0 0 0 0 0 0 0 0 0 0 -0 0 0 0 1 1 2 5 4 2 1 2 2 2 2 2 2 1 2 2 1 1 1 1 1 0 0 0 0 0 0 0 -0
0 0 0 0 0 0 0 0 0 0 0 0 0 0 0 0 0 1 2 5 4 3 2 2 2 2 2 2 2 1 1 2 2 2 1 1 1 0 0 0 0 0 0
0 0 0 0 0 0 0 0 0 0 0 0 0 0 0 0 0 0 0 1 3 5 3 4 3 3 2 2 2 2 1 1 3 3 2 1 1 1 1 0 0 0 0
0 0 0 0 0 0 0 0 0 0 0 0 0 0 0 0 0 0 0 0 0 1 3 5 5 4 3 3 2 3 4 4 3 2 6 4 2 1 1 1 0 0 0
0 0 0 0 0 0 0 0 0 0 0 0 0 0 0 0 0 0 0 0 0 0 0 3 2 2 3 4 4 4 5 5 3 1 2 4 1 0 1 0 1 1 0
0 0 0 0 0 0 0 0 0 0 0 0 0 0 0 0 0 0 0 0 0 0 0 0 1 1 2 0 0 0 3 2 1 0 0 0 0 0 0 0 0 0 0
0 0 0 0 0 0 0 0 0 0 0 0 0 0 0 0 0 0 0 0 0 0 0 0 0 0 0 0 0 0 0 2 2 1 0 0 0 0 0 0 0 0 0
0 0 0 0 0 0 0 0 0 0 0 0 0 0 0 0 0 0 0 0 0 0 0 0 0 0 0 0 0 0 0 1 2 2 0 0 0 0 0 0 0 0 0
0 0 0 0 0 0 0 0 0 0 0 0 0 0 0 0 0 0 0 0 0 0 0 0 0 0 0 0 0 0 0 0 0 0 0 0 0 0 -0 0 0 0 0
0 0 0 0 0 0 0 0 0 0 0 0 0 0 0 0 0 0 0 0 0 0 0 0 0 0 0 0 0 0 0 0 0 0 0 0 0 0 0 0 1 0 0
0 0 0 0 0 0 0 0 0 0 0 0 0 0 0 0 0 0 0 0 0 0 0 0 0 0 0 0 0 0 0 0 0 0 0 0 0 0 0 0 1 1 1
0 0 0 0 0 0 0 0 0 0 0 0 0 0 0 0 0 0 0 0 0 0 0 0 0 0 0 0 0 0 0 0 0 0 0 0 0 0 0 0 0 0 0
0 0 0 0 0 0 0 0 0 0 0 0 0 0 0 0 0 0 0 0 0 0 0 0 0 0 0 0 0 0 0 0 0 0 0 0 0 0 0 0 0 0 0
0 0 0 0 0 0 0 0 0 0 0 0 0 0 0 0 0 0 0 0 0 0 0 0 0 0 0 0 0 0 0 0 0 0 0 0 0 0 0 0 0 0 0
-0 0 0 0 0 0 0 0 0 0 0 0 0 0 0 0 0 0 0 0 0 0 0 0 0 0 0 0 0 0 0 0 0 0 0 0 0 0 0 0 0 0 0
-0 0 0 0 -0 0 0 0 0 0 0 0 0 0 0 0 0 0 0 -0 -0 -0 0 0 0 0 0 0 0 0 0 0 0 0 0 0 0 0 0 0 0 0 0
Wind_Speed_500mb
9 9 9 14 25 35 43 42 48 48 48 50 45 44 47 45 44 41 41 46 43 42 42 32 35 35 31 33 31 26 30 28 24 24 24 20 22 23 22 20 17 17 16
21 25 22 13 14 29 40 43 50 49 53 52 51 45 40 43 41 40 51 48 50 46 39 37 33 34 31 33 31 29 26 22 26 21 22 22 15 14 13 13 12 10 9
25 29 32 30 19 17 32 44 51 53 60 58 50 55 49 46 44 45 46 54 51 47 41 38 33 34 34 32 31 31 29 24 23 27 21 12 21 9 13 9 6 7 7
25 27 30 35 36 31 19 25 49 58 57 62 58 63 69 56 55 48 43 42 47 47 41 41 40 38 32 34 32 32 30 29 21 20 22 22 14 13 10 12 10 7 8
22 25 28 31 34 37 34 29 17 32 54 52 64 58 67 58 49 46 46 49 52 43 41 41 42 40 40 36 33 31 37 27 25 23 20 16 13 15 12 14 8 9 8
20 23 25 27 33 36 40 39 37 25 20 40 48 62 63 60 51 50 48 42 42 49 45 44 43 39 38 36 32 31 31 32 28 23 21 17 15 12 12 12 9 8 8
23 26 30 32 35 39 41 41 44 38 28 19 29 44 54 55 54 50 47 44 43 42 48 48 44 38 39 39 35 34 33 37 28 28 21 19 16 13 12 11 9 9 6
20 25 30 32 34 35 36 38 40 41 36 24 20 29 40 48 52 55 54 46 49 48 49 49 46 38 40 45 43 39 38 34 31 29 26 20 16 14 12 10 9 10 8
19 24 26 29 31 32 33 33 33 32 33 33 24 17 22 32 44 48 45 53 48 49 51 55 53 45 41 46 47 43 43 35 34 32 30 23 19 16 14 12 10 10 11
17 21 24 28 28 29 29 29 29 29 29 28 27 24 14 19 28 37 42 42 41 49 46 55 59 56 50 50 53 47 43 43 38 35 33 29 23 21 17 14 13 11 10
17 20 22 24 26 27 28 29 28 28 29 28 27 24 22 18 19 23 31 42 45 43 53 53 58 61 62 59 62 59 51 51 47 42 40 39 32 24 21 18 16 13 11
14 16 18 21 25 27 29 29 30 30 29 28 27 26 24 23 20 12 28 28 32 43 49 52 52 53 57 62 64 65 62 59 56 52 49 45 39 37 32 23 21 16 16
14 15 16 19 22 26 28 30 29 29 29 29 26 25 25 24 25 25 24 16 28 35 40 47 53 56 57 58 63 69 64 63 63 66 61 54 49 46 34 30 24 19 17
17 20 21 24 26 29 29 31 32 33 34 33 30 27 26 24 23 25 24 24 21 19 38 41 43 47 50 54 58 61 65 67 70 74 73 67 60 54 48 41 36 27 23
21 25 30 32 34 36 38 39 38 37 37 37 35 33 31 28 26 24 24 25 25 23 22 23 37 53 63 66 60 56 66 67 70 79 81 51 58 56 50 44 44 40 31
29 30 32 35 40 41 44 45 44 44 42 42 41 39 36 33 31 31 30 30 29 31 30 24 22 31 36 57 78 92 86 95 87 84 46 27 35 40 49 48 49 44 39
33 35 38 42 44 46 46 48 48 46 45 45 44 44 44 42 39 36 34 35 36 42 45 44 43 41 33 49 59 72 102 101 93 100 90 83 94 68 62 59 56 50 46
36 41 48 52 52 53 54 53 52 52 52 51 48 46 46 48 48 46 43 40 38 40 43 46 44 43 45 57 65 56 60 87 80 86 92 80 93 90 91 81 70 62 54
48 51 52 53 55 58 59 59 59 58 59 58 56 53 51 50 48 49 50 48 46 46 44 47 52 51 46 53 53 60 56 53 65 68 67 83 92 91 96 92 78 59 46
49 53 56 59 61 61 60 62 64 65 66 65 65 62 59 58 58 57 56 54 53 56 53 49 50 51 55 56 56 56 37 44 52 56 62 75 88 91 108 89 64 55 49
52 55 57 60 60 57 53 53 57 63 62 63 63 64 65 67 66 64 60 58 57 58 59 56 50 48 50 50 64 63 77 63 38 37 53 73 85 93 94 85 65 57 47
52 48 48 47 48 48 50 53 53 55 60 62 63 67 69 66 64 63 61 58 57 59 63 60 54 48 42 39 50 59 60 63 61 50 39 48 52 66 69 74 63 57 53
43 45 45 47 45 44 44 50 53 57 65 74 78 78 77 76 68 62 60 62 54 61 63 61 62 58 51 55 47 42 52 61 57 57 60 34 67 58 55 58 61 63 61
45 42 46 47 50 51 52 51 54 54 57 61 64 69 76 74 72 68 69 58 61 57 60 64 65 61 52 43 51 52 42 49 58 62 59 60 52 55 66 65 71 63 62
41 43 44 52 58 58 61 60 58 58 62 59 57 60 63 68 67 67 72 72 61 63 58 59 62 59 60 54 48 59 59 53 43 36 42 52 58 52 43 47 54 53 57
42 43 50 52 56 58 58 59 56 56 59 62 60 58 59 60 60 65 65 67 71 70 67 77 66 50 56 53 37 39 48 62 57 51 41 39 46 50 50 55 56 58 48
Wind_Direction_500mb
36 17 345 275 244 247 252 254 255 246 242 244 234 233 231 231 228 228 236 241 243 245 243 236 247 247 230 233 248 247 238 236 236 232 240 245 256 260 262 264 256 259 270
41 27 22 348 275 247 245 252 254 254 255 249 244 235 234 235 232 230 239 249 245 244 251 245 235 242 236 238 238 230 222 229 234 225 235 245 235 254 250 251 254 255 244
53 40 36 28 6 298 258 247 244 248 251 250 244 244 231 231 229 225 232 244 245 244 250 251 237 242 243 241 234 223 220 235 227 223 236 234 251 220 240 228 242 260 279
60 47 39 35 30 19 350 276 256 250 246 246 240 245 239 227 230 228 227 232 242 240 244 245 240 246 242 230 228 222 225 215 228 226 223 229 235 244 231 233 258 257 294
55 50 44 39 32 26 21 10 328 266 249 240 240 236 240 235 235 230 226 226 239 235 241 233 236 245 244 229 217 222 217 223 208 213 213 218 232 238 251 264 235 284 271
41 38 36 34 30 27 24 19 13 358 293 249 242 239 231 238 231 233 224 223 225 228 234 228 237 244 236 221 215 212 208 194 207 210 212 216 219 238 238 257 273 275 263
36 26 23 21 21 22 21 21 21 16 2 315 259 250 246 240 235 227 230 224 223 220 225 223 231 239 228 221 207 207 203 205 208 206 208 215 223 226 231 247 268 276 282
34 25 13 12 12 13 14 15 17 18 14 356 308 268 252 243 241 236 230 232 228 228 222 221 225 230 226 222 212 208 203 208 208 211 198 214 217 221 226 238 254 266 244
28 14 9 7 6 5 5 9 10 11 12 14 5 326 278 251 240 237 238 231 224 225 222 223 221 223 221 217 210 204 210 208 208 214 213 205 219 222 227 237 244 261 278
8 4 360 356 357 357 357 357 359 2 4 5 5 7 337 281 259 245 236 234 226 220 221 226 223 224 222 219 215 210 214 210 211 210 214 209 218 222 224 231 242 253 267
354 349 350 349 348 344 345 348 353 352 348 356 2 359 350 348 265 257 253 248 240 229 221 222 223 224 225 222 222 215 212 214 212 210 215 218 211 215 224 229 236 240 243
341 338 337 341 344 343 341 340 342 345 345 348 344 353 359 349 328 301 251 241 242 236 229 225 225 223 223 223 223 223 215 213 211 214 214 214 213 217 214 220 225 233 235
330 324 326 331 333 333 332 332 334 332 333 337 338 337 332 336 339 332 320 286 250 239 238 230 226 228 225 225 224 225 223 224 217 215 214 213 214 226 216 220 228 228 225
318 315 315 320 322 322 321 323 321 322 324 329 327 328 326 327 318 316 323 323 295 261 231 226 231 227 229 228 230 228 224 224 229 229 218 219 223 228 225 230 225 215 217
313 313 311 308 309 310 311 312 310 313 315 316 314 314 314 312 311 313 304 302 306 304 289 265 259 243 234 230 226 225 225 232 238 241 224 215 225 230 233 225 219 213 210
304 304 306 307 306 305 303 301 299 301 300 300 300 303 303 306 304 303 299 295 289 285 283 283 284 264 254 252 250 247 249 249 259 246 267 234 223 234 242 232 224 220 209
300 299 299 300 299 298 296 294 295 295 293 292 292 289 289 291 291 293 295 295 290 282 279 279 273 272 273 266 265 256 242 247 246 249 243 252 240 240 246 232 226 215 217
297 296 297 297 296 294 293 292 291 288 286 286 286 287 287 285 284 282 283 285 286 286 281 274 272 269 265 264 267 276 266 252 246 248 245 248 230 238 233 228 213 214 219
297 296 297 295 294 292 293 292 290 287 283 280 279 280 281 281 281 280 278 275 274 273 274 276 273 262 260 263 259 258 258 250 247 251 246 227 228 210 212 218 214 212 216
299 298 297 294 291 290 289 286 283 281 278 277 277 277 278 278 278 277 276 274 269 267 268 267 264 268 260 258 257 244 248 243 236 232 235 233 213 213 211 205 204 205 209
301 300 297 295 293 294 296 294 287 281 282 283 279 274 273 274 275 275 273 270 267 263 260 259 258 261 257 254 249 246 240 243 241 249 234 212 199 211 209 203 200 204 204
304 304 303 301 299 299 299 292 287 284 284 281 280 277 273 271 270 270 268 267 263 258 255 253 254 254 256 257 244 246 241 246 244 237 247 218 208 200 201 195 198 200 203
311 307 307 308 308 305 301 295 292 292 290 283 278 278 273 268 267 266 267 263 256 253 250 249 248 249 252 246 251 254 237 234 229 221 224 228 222 230 225 203 203 211 214
312 310 307 306 306 308 307 299 298 295 289 286 287 285 271 270 267 267 257 259 257 249 247 246 244 243 244 245 240 241 244 224 223 226 225 227 229 230 233 233 226 222 217
314 310 309 308 309 313 310 308 305 302 293 292 286 282 278 278 276 266 260 255 253 250 245 246 246 243 241 243 248 241 237 238 237 232 231 225 230 236 239 222 218 222 217
315 315 315 315 316 315 315 313 310 305 301 295 290 286 281 276 275 270 266 259 255 248 246 241 244 247 239 237 238 238 244 240 236 233 234 240 235 233 240 244 240 227 215
Wind_Speed_850mb
9 9 9 14 25 35 43 42 48 48 48 50 45 44 47 45 44 41 41 46 43 42 42 32 35 35 31 33 31 26 30 28 24 24 24 20 22 23 22 20 17 17 16
21 25 22 13 14 29 40 43 50 49 53 52 51 45 40 43 41 40 51 48 50 46 39 37 33 34 31 33 31 29 26 22 26 21 22 22 15 14 13 13 12 10 9
25 29 32 30 19 17 32 44 51 53 60 58 50 55 49 46 44 45 46 54 51 47 41 38 33 34 34 32 31 31 29 24 23 27 21 12 21 9 13 9 6 7 7
25 27 30 35 36 31 19 25 49 58 57 62 58 63 69 56 55 48 43 42 47 47 41 41 40 38 32 34 32 32 30 29 21 20 22 22 14 13 10 12 10 7 8
22 25 28 31 34 37 34 29 17 32 54 52 64 58 67 58 49 46 46 49 52 43 41 41 42 40 40 36 33 31 37 27 25 23 20 16 13 15 12 14 8 9 8
20 23 25 27 33 36 40 39 37 25 20 40 48 62 63 60 51 50 48 42 42 49 45 44 43 39 38 36 32 31 31 32 28 23 21 17 15 12 12 12 9 8 8
23 26 30 32 35 39 41 41 44 38 28 19 29 44 54 55 54 50 47 44 43 42 48 48 44 38 39 39 35 34 33 37 28 28 21 19 16 13 12 11 9 9 6
20 25 30 32 34 35 36 38 40 41 36 24 20 29 40 48 52 55 54 46 49 48 49 49 46 38 40 45 43 39 38 34 31 29 26 20 16 14 12 10 9 10 8
19 24 26 29 31 32 33 33 33 32 33 33 24 17 22 32 44 48 45 53 48 49 51 55 53 45 41 46 47 43 43 35 34 32 30 23 19 16 14 12 10 10 11
17 21 24 28 28 29 29 29 29 29 29 28 27 24 14 19 28 37 42 42 41 49 46 55 59 56 50 50 53 47 43 43 38 35 33 29 23 21 17 14 13 11 10
17 20 22 24 26 27 28 29 28 28 29 28 27 24 22 18 19 23 31 42 45 43 53 53 58 61 62 59 62 59 51 51 47 42 40 39 32 24 21 18 16 13 11
14 16 18 21 25 27 29 29 30 30 29 28 27 26 24 23 20 12 28 28 32 43 49 52 52 53 57 62 64 65 62 59 56 52 49 45 39 37 32 23 21 16 16
14 15 16 19 22 26 28 30 29 29 29 29 26 25 25 24 25 25 24 16 28 35 40 47 53 56 57 58 63 69 64 63 63 66 61 54 49 46 34 30 24 19 17
17 20 21 24 26 29 29 31 32 33 34 33 30 27 26 24 23 25 24 24 21 19 38 41 43 47 50 54 58 61 65 67 70 74 73 67 60 54 48 41 36 27 23
21 25 30 32 34 36 38 39 38 37 37 37 35 33 31 28 26 24 24 25 25 23 22 23 37 53 63 66 60 56 66 67 70 79 81 51 58 56 50 44 44 40 31
29 30 32 35 40 41 44 45 44 44 42 42 41 39 36 33 31 31 30 30 29 31 30 24 22 31 36 57 78 92 86 95 87 84 46 27 35 40 49 48 49 44 39
33 35 38 42 44 46 46 48 48 46 45 45 44 44 44 42 39 36 34 35 36 42 45 44 43 41 33 49 59 72 102 101 93 100 90 83 94 68 62 59 56 50 46
36 41 48 52 52 53 54 53 52 52 52 51 48 46 46 48 48 46 43 40 38 40 43 46 44 43 45 57 65 56 60 87 80 86 92 80 93 90 91 81 70 62 54
48 51 52 53 55 58 59 59 59 58 59 58 56 53 51 50 48 49 50 48 46 46 44 47 52 51 46 53 53 60 56 53 65 68 67 83 92 91 96 92 78 59 46
49 53 56 59 61 61 60 62 64 65 66 65 65 62 59 58 58 57 56 54 53 56 53 49 50 51 55 56 56 56 37 44 52 56 62 75 88 91 108 89 64 55 49
52 55 57 60 60 57 53 53 57 63 62 63 63 64 65 67 66 64 60 58 57 58 59 56 50 48 50 50 64 63 77 63 38 37 53 73 85 93 94 85 65 57 47
52 48 48 47 48 48 50 53 53 55 60 62 63 67 69 66 64 63 61 58 57 59 63 60 54 48 42 39 50 59 60 63 61 50 39 48 52 66 69 74 63 57 53
43 45 45 47 45 44 44 50 53 57 65 74 78 78 77 76 68 62 60 62 54 61 63 61 62 58 51 55 47 42 52 61 57 57 60 34 67 58 55 58 61 63 61
45 42 46 47 50 51 52 51 54 54 57 61 64 69 76 74 72 68 69 58 61 57 60 64 65 61 52 43 51 52 42 49 58 62 59 60 52 55 66 65 71 63 62
41 43 44 52 58 58 61 60 58 58 62 59 57 60 63 68 67 67 72 72 61 63 58 59 62 59 60 54 48 59 59 53 43 36 42 52 58 52 43 47 54 53 57
42 43 50 52 56 58 58 59 56 56 59 62 60 58 59 60 60 65 65 67 71 70 67 77 66 50 56 53 37 39 48 62 57 51 41 39 46 50 50 55 56 58 48
Wind_Direction_850mb
36 17 345 275 244 247 252 254 255 246 242 244 234 233 231 231 228 228 236 241 243 245 243 236 247 247 230 233 248 247 238 236 236 232 240 245 256 260 262 264 256 259 270
41 27 22 348 275 247 245 252 254 254 255 249 244 235 234 235 232 230 239 249 245 244 251 245 235 242 236 238 238 230 222 229 234 225 235 245 235 254 250 251 254 255 244
53 40 36 28 6 298 258 247 244 248 251 250 244 244 231 231 229 225 232 244 245 244 250 251 237 242 243 241 234 223 220 235 227 223 236 234 251 220 240 228 242 260 279
60 47 39 35 30 19 350 276 256 250 246 246 240 245 239 227 230 228 227 232 242 240 244 245 240 246 242 230 228 222 225 215 228 226 223 229 235 244 231 233 258 257 294
55 50 44 39 32 26 21 10 328 266 249 240 240 236 240 235 235 230 226 226 239 235 241 233 236 245 244 229 217 222 217 223 208 213 213 218 232 238 251 264 235 284 271
41 38 36 34 30 27 24 19 13 358 293 249 242 239 231 238 231 233 224 223 225 228 234 228 237 244 236 221 215 212 208 194 207 210 212 216 219 238 238 257 273 275 263
36 26 23 21 21 22 21 21 21 16 2 315 259 250 246 240 235 227 230 224 223 220 225 223 231 239 228 221 207 207 203 205 208 206 208 215 223 226 231 247 268 276 282
34 25 13 12 12 13 14 15 17 18 14 356 308 268 252 243 241 236 230 232 228 228 222 221 225 230 226 222 212 208 203 208 208 211 198 214 217 221 226 238 254 266 244
28 14 9 7 6 5 5 9 10 11 12 14 5 326 278 251 240 237 238 231 224 225 222 223 221 223 221 217 210 204 210 208 208 214 213 205 219 222 227 237 244 261 278
8 4 360 356 357 357 357 357 359 2 4 5 5 7 337 281 259 245 236 234 226 220 221 226 223 224 222 219 215 210 214 210 211 210 214 209 218 222 224 231 242 253 267
354 349 350 349 348 344 345 348 353 352 348 356 2 359 350 348 265 257 253 248 240 229 221 222 223 224 225 222 222 215 212 214 212 210 215 218 211 215 224 229 236 240 243
341 338 337 341 344 343 341 340 342 345 345 348 344 353 359 349 328 301 251 241 242 236 229 225 225 223 223 223 223 223 215 213 211 214 214 214 213 217 214 220 225 233 235
330 324 326 331 333 333 332 332 334 332 333 337 338 337 332 336 339 332 320 286 250 239 238 230 226 228 225 225 224 225 223 224 217 215 214 213 214 226 216 220 228 228 225
318 315 315 320 322 322 321 323 321 322 324 329 327 328 326 327 318 316 323 323 295 261 231 226 231 227 229 228 230 228 224 224 229 229 218 219 223 228 225 230 225 215 217
313 313 311 308 309 310 311 312 310 313 315 316 314 314 314 312 311 313 304 302 306 304 289 265 259 243 234 230 226 225 225 232 238 241 224 215 225 230 233 225 219 213 210
304 304 306 307 306 305 303 301 299 301 300 300 300 303 303 306 304 303 299 295 289 285 283 283 284 264 254 252 250 247 249 249 259 246 267 234 223 234 242 232 224 220 209
300 299 299 300 299 298 296 294 295 295 293 292 292 289 289 291 291 293 295 295 290 282 279 279 273 272 273 266 265 256 242 247 246 249 243 252 240 240 246 232 226 215 217
297 296 297 297 296 294 293 292 291 288 286 286 286 287 287 285 284 282 283 285 286 286 281 274 272 269 265 264 267 276 266 252 246 248 245 248 230 238 233 228 213 214 219
297 296 297 295 294 292 293 292 290 287 283 280 279 280 281 281 281 280 278 275 274 273 274 276 273 262 260 263 259 258 258 250 247 251 246 227 228 210 212 218 214 212 216
299 298 297 294 291 290 289 286 283 281 278 277 277 277 278 278 278 277 276 274 269 267 268 267 264 268 260 258 257 244 248 243 236 232 235 233 213 213 211 205 204 205 209
301 300 297 295 293 294 296 294 287 281 282 283 279 274 273 274 275 275 273 270 267 263 260 259 258 261 257 254 249 246 240 243 241 249 234 212 199 211 209 203 200 204 204
304 304 303 301 299 299 299 292 287 284 284 281 280 277 273 271 270 270 268 267 263 258 255 253 254 254 256 257 244 246 241 246 244 237 247 218 208 200 201 195 198 200 203
311 307 307 308 308 305 301 295 292 292 290 283 278 278 273 268 267 266 267 263 256 253 250 249 248 249 252 246 251 254 237 234 229 221 224 228 222 230 225 203 203 211 214
312 310 307 306 306 308 307 299 298 295 289 286 287 285 271 270 267 267 257 259 257 249 247 246 244 243 244 245 240 241 244 224 223 226 225 227 229 230 233 233 226 222 217
314 310 309 308 309 313 310 308 305 302 293 292 286 282 278 278 276 266 260 255 253 250 245 246 246 243 241 243 248 241 237 238 237 232 231 225 230 236 239 222 218 222 217
315 315 315 315 316 315 315 313 310 305 301 295 290 286 281 276 275 270 266 259 255 248 246 241 244 247 239 237 238 238 244 240 236 233 234 240 235 233 240 244 240 227 215